Change the Weather History Date:

Sunday, September 8, 2013

  Actual Average (KISP) Record (KISP)
Temperature  
Mean Temperature 72 °F 68 °F  
Max Temperature 81 °F 76 °F 89 °F (2010)
Min Temperature 55 °F 61 °F 47 °F (1984)
Degree Days  
Heating Degree Days 0 1  
Month to date heating degree days 6  
Since 1 July heating degree days 11  
Cooling Degree Days 7 4  
Month to date cooling degree days 41  
Year to date cooling degree days 727  
Growing Degree Days 22 (Base 50)    
Moisture  
Dew Point 55 °F    
Average Humidity 60    
Maximum Humidity 87    
Minimum Humidity 31    
Precipitation  
Precipitation 0.00 in 0.11 in 2.40 in (2004)
Month to date precipitation 0.95  
Year to date precipitation 32.09  
Snow  
Snow 0.00 in 0.00 in - ()
Month to date snowfall 0.0  
Since 1 July snowfall 0.0  
Snow Depth -    
Sea Level Pressure  
Sea Level Pressure 29.89 in    
Wind  
Wind Speed 7 mph (WNW)    
Max Wind Speed 16 mph    
Max Gust Speed 24 mph    
Visibility 10 miles    
Events Rain    
T = Trace of Precipitation, MM = Missing Value Source: NWS Daily Summary

Daily Weather History Graph

Daily Weather History Graph

Search for Another Location

Airport or City:

Trip Planner

Search our weather history database for the weather conditions in past years. The results will help you decide how hot, cold, wet, or windy it might be!

Date:

Astronomy

Sep. 08, 2013 Rise Set
Actual Time 6:25 AM EDT 7:11 PM EDT
Civil Twilight 5:57 AM EDT 7:39 PM EDT
Nautical Twilight 5:24 AM EDT 8:12 PM EDT
Astronomical Twilight 4:50 AM EDT 8:46 PM EDT
Moon 9:41 AM EDT (9/8) 8:43 PM EDT (9/8)
Length of Visible Light 13h 42m
Length of Day
12h 46m
Waxing Crescent, 11% of the Moon is Illuminated
Sep 8
Waxing Crescent
Sep 12
First Quarter
Sep 19
Full
Sep 26
Last Quarter
Oct 4
New

Hourly Weather History & Observations

Time (EDT) Temp. Heat Index Dew Point Humidity Pressure Visibility Wind Dir Wind Speed Gust Speed Precip Events Conditions
12:56 AM 68.0 °F - 62.1 °F 81% 29.91 in 10.0 mi SW 5.8 mph - 0.00 in Rain Light Rain
1:56 AM 69.1 °F - 63.0 °F 81% 29.88 in 10.0 mi SW 5.8 mph - N/A   Scattered Clouds
2:56 AM 68.0 °F - 59.0 °F 73% 29.87 in 10.0 mi WSW 6.9 mph - N/A   Overcast
3:56 AM 68.0 °F - 57.9 °F 70% 29.86 in 10.0 mi SW 5.8 mph - N/A   Overcast
4:56 AM 66.9 °F - 59.0 °F 76% 29.83 in 10.0 mi SSW 6.9 mph - N/A   Overcast
5:56 AM 66.0 °F - 60.1 °F 81% 29.84 in 10.0 mi WSW 3.5 mph - N/A   Partly Cloudy
6:56 AM 64.0 °F - 60.1 °F 87% 29.83 in 10.0 mi WSW 3.5 mph - N/A   Clear
7:56 AM 68.0 °F - 62.1 °F 81% 29.83 in 10.0 mi WSW 5.8 mph - N/A   Clear
8:56 AM 72.0 °F - 59.0 °F 64% 29.83 in 10.0 mi West 10.4 mph - N/A   Clear
9:56 AM 75.0 °F - 60.1 °F 60% 29.83 in 10.0 mi NW 8.1 mph - N/A   Clear
10:56 AM 77.0 °F - 61.0 °F 58% 29.82 in 10.0 mi WNW 12.7 mph - N/A   Clear
11:56 AM 79.0 °F - 62.1 °F 56% 29.82 in 10.0 mi NW 5.8 mph - N/A   Clear
12:56 PM 81.0 °F 81.9 °F 62.1 °F 52% 29.82 in 10.0 mi Variable 6.9 mph 19.6 mph N/A   Scattered Clouds
1:56 PM 79.0 °F - 61.0 °F 54% 29.82 in 10.0 mi NNW 12.7 mph 24.2 mph N/A   Mostly Cloudy
2:56 PM 78.1 °F - 61.0 °F 56% 29.83 in 10.0 mi North 10.4 mph - N/A   Overcast
3:56 PM 78.1 °F - 59.0 °F 52% 29.84 in 10.0 mi NW 12.7 mph 18.4 mph N/A   Mostly Cloudy
4:56 PM 78.1 °F - 55.0 °F 45% 29.86 in 10.0 mi North 16.1 mph 24.2 mph N/A   Scattered Clouds
5:56 PM 75.0 °F - 42.1 °F 31% 29.89 in 10.0 mi North 12.7 mph 20.7 mph N/A   Clear
6:56 PM 71.1 °F - 44.1 °F 38% 29.94 in 10.0 mi NNW 6.9 mph - N/A   Clear
7:56 PM 68.0 °F - 46.0 °F 45% 29.97 in 10.0 mi North 8.1 mph - N/A   Clear
8:56 PM 66.9 °F - 44.1 °F 44% 30.01 in 10.0 mi North 10.4 mph - N/A   Clear
9:56 PM 64.9 °F - 45.0 °F 48% 30.04 in 10.0 mi Calm Calm - N/A   Clear
10:56 PM 63.0 °F - 43.0 °F 48% 30.06 in 10.0 mi North 5.8 mph - N/A   Clear
11:56 PM 55.9 °F - 44.1 °F 64% 30.09 in 10.0 mi Calm Calm - N/A   Clear